Temperature
20 18 18 19 19 20 20 20 19 19 19 19 18 17 17 17 17 17 17 17 17 17 17 17 17 17 17 17 17 16 16 16 16 16 16 16 15 15 15 15 15 15 14 14
19 19 20 20 20 20 19 19 19 19 19 19 17 17 17 17 16 16 16 17 17 17 17 17 17 17 17 17 17 16 16 16 16 16 16 15 15 15 15 15 15 14 14 14
20 20 21 21 20 20 19 19 19 19 19 18 18 17 17 17 17 17 17 17 17 17 17 17 17 17 16 16 16 16 16 16 15 15 15 15 15 15 14 14 14 14 14 14
20 20 21 21 21 20 19 20 20 19 18 17 18 17 17 16 16 16 16 16 17 17 17 17 17 17 16 16 16 16 16 15 15 15 15 15 15 14 14 14 14 14 14 14
21 21 21 21 21 21 20 20 19 19 18 17 17 17 16 16 16 15 15 16 16 17 17 16 16 16 16 16 16 16 15 15 15 15 14 14 14 14 14 14 14 14 13 13
21 21 21 21 22 21 20 19 18 16 16 17 18 17 16 15 16 16 16 16 16 16 16 16 16 15 15 15 15 15 15 15 14 14 14 14 14 14 13 13 13 13 13 13
21 21 21 22 21 21 19 18 17 18 16 17 17 17 16 16 16 16 15 16 16 16 16 16 15 15 15 15 15 15 15 14 14 14 14 14 14 13 13 13 13 13 13 13
20 20 21 21 21 20 19 18 18 18 17 16 17 16 16 16 16 16 16 16 16 16 16 15 15 15 15 15 15 14 14 14 14 14 14 13 13 13 13 13 13 13 13 13
20 20 22 21 21 20 19 17 17 16 17 16 16 16 16 16 15 15 15 15 15 15 15 15 15 15 15 15 14 14 14 14 14 14 13 13 13 13 13 13 13 13 13 13
20 20 21 21 21 20 19 16 15 16 16 17 17 16 15 16 15 14 14 14 15 15 15 15 15 15 15 15 14 14 14 14 14 13 13 13 13 13 13 13 13 12 12 12
19 19 20 20 20 20 19 17 15 14 15 16 16 16 16 15 15 14 14 15 15 15 15 15 15 15 15 14 14 14 14 14 13 13 13 13 13 13 12 12 12 12 12 12
17 17 18 19 19 19 19 18 16 16 16 14 14 15 16 15 15 14 14 15 15 15 15 15 15 15 14 14 14 14 13 13 13 13 13 13 12 12 12 12 12 12 12 12
17 16 17 18 18 19 19 17 16 14 13 13 14 16 16 15 14 15 15 15 15 15 15 15 15 14 14 14 14 13 13 13 13 13 12 12 12 12 12 12 12 12 12 12
17 16 17 18 18 18 18 18 16 15 14 14 15 16 15 15 14 14 15 15 15 15 15 14 14 14 14 14 13 13 13 13 13 12 12 12 12 12 12 12 12 12 11 11
16 17 17 17 18 18 18 18 17 16 15 15 16 15 15 14 14 14 15 15 15 14 14 14 14 14 14 13 13 13 13 13 13 12 12 12 12 12 12 12 11 11 11 11
15 16 17 18 18 18 18 18 18 17 16 16 16 15 15 15 15 14 15 15 14 14 14 14 14 14 14 13 13 13 13 13 13 12 12 12 12 12 12 11 11 11 11 11
14 15 16 16 17 18 17 17 17 17 16 16 16 15 14 14 13 14 15 15 15 15 15 14 14 14 14 13 13 13 13 13 13 12 12 12 12 12 12 11 11 11 11 11
14 13 13 15 17 17 17 17 17 17 16 15 15 15 14 14 15 15 16 15 15 15 15 14 14 14 14 13 13 13 13 13 12 12 12 12 12 12 11 11 11 11 11 11
13 14 13 13 15 16 17 17 16 16 16 15 15 14 14 15 14 15 16 15 15 15 15 15 14 14 13 13 13 13 13 12 12 12 12 12 12 11 11 11 11 11 11 11
13 13 13 13 16 16 17 17 17 17 16 15 15 14 14 14 13 13 16 16 15 15 15 14 14 14 13 13 13 13 13 12 12 12 12 12 12 11 11 11 11 11 11 11
14 13 13 13 14 15 16 17 17 16 16 16 16 15 14 14 14 16 16 15 15 15 14 14 14 14 13 13 13 12 12 12 12 12 12 12 12 11 11 11 11 11 11 10
14 13 13 12 14 15 16 16 16 15 16 17 17 16 16 16 16 16 16 15 15 15 14 14 14 14 13 13 13 12 12 12 12 12 12 12 12 11 11 11 11 11 11 10
13 13 12 13 14 15 15 16 17 17 17 17 17 17 16 16 16 16 15 15 15 14 14 14 14 13 13 13 13 12 12 12 12 12 12 12 11 11 11 11 11 11 11 11
13 12 12 12 13 15 16 16 17 17 17 17 17 17 16 16 16 15 15 15 14 14 14 14 13 13 13 13 12 12 12 12 12 12 12 12 11 11 11 11 11 11 11 11
13 12 12 12 13 14 16 17 17 17 17 17 16 16 16 16 15 15 15 15 14 14 14 14 13 13 13 13 12 12 12 12 12 12 12 11 11 11 11 11 11 11 11 10
11 12 12 13 14 13 15 16 16 16 16 16 16 16 16 15 15 15 15 14 14 14 14 13 13 13 13 13 12 12 12 12 12 12 11 11 11 11 11 11 11 11 10 10
Wind_Speed
2 3 4 7 7 6 3 2 4 5 2 2 1 0 3 1 2 2 1 2 2 2 1 2 2 2 2 1 2 2 2 1 1 1 1 0 1 2 2 2 2 2 1 2
3 4 8 3 3 3 3 2 3 3 0 3 3 1 2 1 1 2 3 3 4 2 1 1 2 2 1 1 2 2 1 1 1 1 1 1 1 1 2 2 2 2 2 2
6 6 2 4 3 3 3 5 5 3 1 3 3 3 2 1 1 1 1 2 2 3 4 3 2 1 1 1 1 2 2 1 1 1 1 1 1 1 2 2 2 3 2 2
3 4 1 2 3 5 4 6 5 3 3 1 1 1 4 2 2 2 2 2 2 2 2 3 2 1 2 2 1 1 1 1 0 1 1 1 0 1 2 2 1 2 2 2
4 2 1 2 3 5 5 1 3 3 4 2 2 2 4 1 3 4 4 3 1 1 2 3 3 3 2 1 1 0 0 0 0 1 1 1 1 2 2 1 2 2 3 3
4 2 2 3 0 3 3 6 6 5 4 1 2 3 4 3 4 4 3 2 1 0 1 1 1 0 0 0 1 1 1 1 1 0 1 1 2 2 1 2 2 3 3 3
4 3 2 1 2 3 5 5 4 4 4 3 1 2 5 4 3 3 3 2 1 0 1 1 0 0 1 0 0 1 1 2 2 1 1 2 2 2 2 2 2 3 3 3
1 5 3 0 2 3 2 6 5 3 3 4 2 3 4 3 1 1 0 0 1 1 1 0 1 1 1 1 1 1 1 2 2 2 2 2 2 2 2 3 3 3 3 4
4 4 3 1 1 5 4 2 4 6 2 1 3 4 4 2 3 3 2 2 1 0 1 1 1 1 1 2 2 2 1 2 3 2 2 2 2 2 2 3 2 3 3 2
5 3 4 4 4 5 4 7 5 4 2 2 4 3 4 4 3 1 0 1 1 1 1 1 2 2 2 2 1 1 1 2 3 3 2 2 2 2 2 2 2 2 2 2
3 2 5 4 2 1 3 4 6 5 4 4 3 5 4 5 4 4 3 2 2 2 2 2 2 2 2 1 1 1 2 2 3 3 3 2 2 2 2 1 2 1 2 2
3 4 1 4 3 1 2 4 6 4 2 3 3 6 4 3 3 3 3 2 2 2 2 2 2 1 2 2 2 2 3 3 3 3 3 2 2 2 1 1 1 1 1 1
5 5 2 6 5 4 3 3 4 5 5 4 3 5 2 1 1 2 3 3 1 1 1 2 2 1 2 2 2 3 3 4 4 3 2 2 2 1 1 1 2 2 2 2
5 4 5 6 6 2 2 0 3 5 4 4 5 5 3 2 1 2 2 2 1 1 1 1 2 2 2 2 2 3 4 4 3 2 2 2 2 1 1 1 1 2 2 2
4 3 3 3 3 1 1 2 2 4 6 6 5 5 6 5 4 4 3 2 1 1 2 2 2 2 2 2 3 3 4 4 3 2 2 2 2 1 1 1 1 1 2 2
3 4 2 2 1 0 1 2 1 2 2 3 2 4 4 2 1 1 2 2 2 2 3 2 2 2 2 2 3 3 4 4 2 2 2 2 1 1 1 1 1 1 2 2
2 4 3 2 4 2 3 3 3 2 2 4 5 6 2 1 3 5 4 4 4 4 3 3 3 3 3 3 2 3 3 3 2 2 3 2 1 1 1 1 1 1 2 2
6 4 3 1 2 2 6 2 3 3 2 3 4 3 4 5 3 2 3 4 4 4 4 4 3 3 3 2 2 2 2 2 2 2 2 2 1 1 1 1 1 1 1 2
4 6 4 3 1 4 5 2 3 3 3 3 4 3 2 2 3 3 2 3 5 5 4 4 4 3 2 2 2 2 2 2 2 2 2 2 1 0 0 1 1 2 1 2
5 5 5 4 3 4 6 3 2 3 3 4 5 5 4 5 2 4 4 3 4 3 2 2 2 1 2 2 1 1 2 2 3 3 3 2 2 2 2 2 2 2 1 2
3 3 3 4 4 6 5 2 3 2 6 4 6 6 7 6 6 4 2 2 3 2 2 2 1 1 2 2 0 1 2 3 4 4 3 2 2 2 2 2 2 2 2 2
4 3 3 4 3 6 3 2 5 7 2 3 5 6 6 5 3 2 2 2 2 1 1 1 1 2 2 1 0 2 3 4 3 2 2 2 2 2 1 1 2 2 1 2
4 6 5 6 6 5 3 4 4 3 2 3 4 3 4 3 3 2 2 3 3 3 2 1 1 2 3 2 1 3 4 3 2 1 2 2 2 2 1 1 1 1 1 1
2 1 2 2 5 5 4 2 1 1 2 2 3 3 4 4 3 3 3 3 3 2 2 1 1 2 3 3 2 3 3 2 1 1 2 2 1 2 1 1 1 1 1 2
4 2 1 3 5 4 4 3 2 1 1 1 1 3 4 5 4 4 4 4 4 3 2 2 3 3 4 3 3 3 2 1 1 2 2 2 1 2 1 1 2 2 3 3
4 5 5 6 6 4 6 5 2 2 2 2 2 2 2 4 4 4 4 4 4 4 3 2 3 3 4 3 3 3 2 2 2 2 2 2 2 1 1 1 2 2 3 4
Wind_Direction
76 75 239 229 200 195 177 188 264 269 247 125 153 359 341 34 107 140 171 195 205 213 205 148 150 140 137 146 164 186 188 188 134 100 110 78 293 301 306 288 279 279 271 261
47 267 246 202 164 164 175 208 258 298 71 129 110 36 342 43 158 180 189 208 211 202 158 158 154 151 179 198 185 186 209 208 194 181 182 196 227 273 273 294 320 310 303 291
196 245 205 151 163 169 217 206 220 211 57 73 99 358 346 351 20 32 309 254 223 205 199 190 176 182 215 228 202 195 225 228 226 197 95 42 29 3 341 331 330 323 329 330
233 266 222 188 215 180 251 224 195 172 131 280 125 269 298 286 319 313 299 305 288 259 201 186 190 218 245 239 223 203 205 214 233 142 138 143 210 267 267 279 281 309 326 316
255 227 203 230 239 181 212 157 137 136 141 70 27 143 284 305 279 273 271 273 287 268 188 187 202 221 231 208 181 219 150 353 323 146 158 167 236 255 286 310 320 317 313 313
249 258 202 214 255 138 123 72 64 56 76 52 254 166 273 255 250 261 264 284 308 320 160 181 188 178 274 64 53 24 18 324 311 250 214 199 228 258 302 311 307 309 305 303
332 325 322 117 63 35 75 82 33 4 12 259 268 169 254 268 259 232 239 257 264 115 90 112 151 236 280 292 44 331 327 318 317 292 262 242 237 240 252 267 269 282 293 292
324 300 285 250 172 191 160 139 154 199 228 279 337 242 266 303 348 15 82 131 74 41 25 20 272 248 239 256 259 268 272 291 302 289 280 279 269 254 260 259 254 265 269 272
184 265 300 278 195 137 135 149 157 133 121 336 291 293 307 26 40 43 54 64 48 302 320 306 302 270 240 241 250 259 279 298 299 288 282 290 285 266 266 276 269 270 278 286
166 243 311 327 57 41 115 136 93 105 131 278 298 286 273 272 260 263 244 264 286 309 347 313 300 283 265 259 265 276 252 262 271 276 277 283 277 269 259 265 272 279 286 286
134 161 318 11 50 314 72 81 94 101 137 159 262 277 239 227 227 214 227 234 236 255 269 277 286 301 304 306 305 312 313 301 294 294 299 302 300 290 281 282 278 277 280 288
117 122 280 287 292 295 115 136 138 136 203 170 184 267 285 223 218 191 206 236 243 234 257 269 286 320 323 316 327 333 322 312 302 303 310 310 311 318 339 318 299 299 303 314
130 110 43 345 346 3 51 87 119 118 120 152 176 266 323 48 93 192 203 220 222 204 292 304 319 319 310 311 323 327 321 314 318 325 324 323 325 329 317 312 329 351 358 353
124 113 160 199 228 249 311 43 132 127 150 194 217 242 292 298 286 257 234 224 196 228 271 301 313 305 308 312 318 325 321 319 324 331 328 317 306 299 303 332 360 1 6 8
110 143 186 223 238 186 216 265 178 174 187 191 227 219 248 239 232 231 222 198 164 286 283 276 292 298 312 322 321 323 321 326 331 340 334 317 316 337 10 6 0 2 5 352
93 150 141 332 323 95 328 317 199 187 175 186 209 254 256 241 172 200 208 194 221 256 261 276 291 295 291 289 296 312 314 319 330 331 314 313 339 2 2 350 12 19 359 347
127 137 129 267 313 15 307 266 213 193 193 178 210 235 222 193 204 209 209 209 224 239 240 241 249 250 256 261 263 282 294 313 328 320 314 324 347 6 358 11 30 6 338 347
139 124 132 146 51 239 253 248 179 172 223 203 210 219 196 206 218 219 199 202 227 232 230 238 244 255 266 267 279 293 317 329 324 323 317 324 357 8 357 19 1 316 317 322
144 136 121 121 173 280 293 246 173 177 262 220 199 209 182 121 51 337 247 207 219 228 231 232 232 235 255 268 280 313 327 328 327 317 307 296 261 246 307 310 288 282 299 310
65 95 116 128 162 238 255 268 185 123 282 239 186 187 168 119 115 262 249 217 233 243 237 234 239 249 262 276 281 320 315 316 296 287 285 278 244 220 240 251 259 268 268 286
55 61 122 159 208 258 259 270 128 171 249 224 184 181 169 177 203 227 212 206 214 219 228 206 205 257 268 285 313 308 302 288 278 284 288 282 260 243 244 256 269 282 296 315
168 155 172 147 184 257 267 128 177 221 235 179 180 180 182 200 212 211 198 203 210 221 237 207 207 274 291 299 275 294 288 286 293 300 298 286 276 263 261 265 298 300 305 316
189 191 188 186 213 252 261 234 246 187 182 196 182 186 175 185 210 212 211 214 227 228 236 235 219 276 301 288 234 260 276 289 309 320 307 294 289 279 265 244 269 300 308 304
274 129 133 255 276 285 283 285 301 187 199 207 181 175 176 189 204 206 211 218 229 237 235 230 221 267 287 288 272 255 264 260 253 284 292 290 287 294 295 274 253 255 279 292
229 163 164 261 280 310 303 269 233 214 145 122 146 176 181 176 196 206 212 223 225 229 230 213 220 243 265 281 286 281 268 232 239 266 282 294 283 280 297 295 271 255 254 240
211 185 185 231 238 220 254 261 230 163 187 188 172 178 184 181 196 202 216 225 222 225 224 228 243 257 271 280 286 288 269 225 223 266 280 281 271 272 271 284 311 295 266 283
Height
1492 1497 1501 1497 1496 1496 1499 1503 1506 1501 1496 1499 1502 1503 1500 1498 1498 1499 1499 1500 1499 1500 1501 1501 1502 1502 1503 1503 1503 1503 1503 1504 1504 1503 1503 1503 1502 1502 1502 1501 1501 1500 1500 1499
1498 1499 1491 1489 1492 1495 1498 1504 1504 1499 1495 1499 1504 1505 1501 1500 1499 1499 1499 1499 1499 1499 1500 1501 1501 1501 1501 1502 1502 1502 1502 1502 1502 1502 1502 1502 1501 1500 1499 1499 1498 1498 1498 1497
1497 1492 1487 1489 1492 1497 1499 1502 1501 1501 1499 1500 1504 1508 1504 1501 1501 1500 1499 1498 1498 1498 1498 1499 1499 1500 1501 1501 1501 1501 1501 1501 1501 1500 1500 1500 1499 1498 1497 1496 1496 1495 1495 1495
1493 1488 1487 1489 1491 1493 1500 1491 1493 1497 1505 1512 1508 1520 1508 1504 1502 1500 1499 1498 1497 1497 1497 1498 1498 1499 1499 1499 1500 1500 1499 1499 1499 1498 1498 1497 1497 1495 1495 1494 1494 1493 1492 1493
1491 1487 1487 1489 1488 1487 1491 1488 1492 1497 1504 1512 1511 1518 1514 1506 1505 1501 1499 1498 1497 1497 1497 1497 1497 1498 1498 1498 1498 1498 1498 1498 1497 1496 1496 1496 1495 1494 1493 1492 1491 1491 1491 1490
1486 1483 1483 1484 1483 1484 1486 1492 1497 1504 1510 1520 1513 1517 1517 1509 1503 1500 1498 1497 1497 1497 1497 1497 1497 1497 1497 1497 1496 1496 1496 1496 1495 1494 1494 1494 1493 1492 1491 1490 1489 1489 1489 1488
1490 1485 1482 1482 1485 1487 1490 1503 1518 1520 1526 1523 1512 1515 1514 1501 1498 1497 1497 1497 1496 1496 1496 1496 1496 1496 1496 1496 1495 1495 1494 1494 1493 1493 1492 1492 1491 1490 1488 1488 1488 1487 1486 1485
1500 1499 1485 1482 1485 1490 1493 1500 1518 1526 1529 1523 1513 1515 1508 1499 1497 1496 1496 1496 1496 1496 1496 1496 1496 1495 1495 1495 1495 1494 1494 1493 1492 1491 1490 1490 1488 1487 1486 1486 1486 1485 1484 1483
1500 1498 1482 1481 1481 1484 1493 1500 1501 1515 1519 1526 1520 1512 1503 1498 1497 1497 1496 1496 1496 1496 1496 1496 1495 1495 1495 1494 1494 1493 1493 1492 1491 1489 1488 1487 1486 1485 1485 1484 1484 1483 1482 1481
1489 1496 1486 1482 1482 1484 1488 1496 1507 1516 1526 1529 1521 1516 1513 1502 1499 1497 1497 1497 1496 1496 1496 1496 1495 1494 1494 1494 1493 1493 1491 1490 1489 1488 1486 1485 1484 1484 1483 1483 1482 1481 1480 1479
1487 1496 1493 1488 1490 1491 1492 1498 1507 1518 1519 1528 1530 1520 1499 1498 1496 1496 1496 1496 1496 1496 1495 1495 1495 1494 1494 1493 1492 1491 1490 1489 1488 1487 1485 1484 1483 1482 1482 1481 1480 1480 1478 1477
1489 1498 1503 1495 1487 1486 1488 1494 1503 1513 1519 1523 1527 1520 1494 1494 1493 1494 1495 1495 1495 1496 1496 1495 1495 1494 1493 1492 1491 1490 1490 1488 1487 1485 1484 1482 1482 1481 1480 1479 1479 1478 1477 1476
1489 1499 1509 1506 1501 1492 1492 1494 1498 1506 1516 1523 1525 1514 1494 1493 1493 1494 1494 1494 1495 1495 1495 1495 1494 1493 1492 1492 1491 1490 1489 1487 1486 1484 1483 1481 1480 1480 1479 1478 1478 1477 1476 1474
1485 1498 1505 1509 1504 1496 1495 1495 1497 1504 1514 1517 1513 1505 1497 1495 1494 1493 1493 1494 1494 1494 1494 1494 1493 1493 1492 1492 1491 1489 1488 1487 1485 1483 1482 1481 1480 1479 1478 1478 1477 1476 1475 1473
1485 1496 1495 1495 1492 1492 1493 1494 1494 1498 1501 1506 1502 1501 1496 1493 1492 1492 1493 1493 1494 1494 1493 1493 1493 1492 1492 1491 1490 1489 1488 1486 1485 1483 1481 1480 1479 1479 1478 1477 1476 1475 1474 1473
1488 1494 1494 1495 1491 1491 1493 1491 1491 1493 1495 1497 1497 1497 1490 1490 1491 1491 1492 1492 1492 1493 1493 1493 1492 1492 1491 1490 1489 1488 1487 1486 1484 1483 1481 1480 1479 1478 1477 1477 1476 1475 1473 1472
1491 1495 1500 1502 1495 1493 1499 1492 1490 1491 1490 1493 1496 1493 1489 1490 1489 1489 1490 1491 1491 1492 1492 1492 1491 1491 1490 1490 1489 1487 1486 1485 1484 1483 1481 1480 1479 1478 1477 1476 1475 1474 1473 1472
1490 1496 1504 1505 1501 1507 1496 1485 1485 1488 1488 1487 1487 1487 1487 1487 1487 1488 1489 1490 1490 1491 1491 1490 1490 1490 1489 1489 1488 1487 1486 1484 1483 1482 1481 1480 1479 1478 1477 1476 1475 1473 1472 1471
1484 1493 1503 1509 1508 1503 1491 1485 1485 1488 1488 1484 1485 1485 1486 1487 1488 1488 1488 1489 1489 1489 1489 1489 1489 1488 1488 1487 1486 1485 1484 1483 1482 1481 1480 1479 1478 1477 1476 1475 1474 1473 1471 1470
1487 1490 1500 1507 1506 1507 1493 1483 1481 1486 1490 1482 1482 1483 1485 1486 1492 1489 1487 1487 1488 1488 1488 1488 1488 1487 1486 1486 1485 1484 1483 1482 1481 1480 1479 1479 1478 1476 1475 1474 1473 1472 1471 1469
1493 1497 1501 1505 1505 1498 1484 1481 1482 1494 1490 1480 1480 1481 1483 1484 1485 1485 1485 1486 1487 1487 1487 1487 1486 1486 1485 1484 1484 1483 1482 1480 1480 1479 1478 1477 1476 1475 1474 1473 1472 1471 1469 1468
1494 1498 1501 1504 1505 1500 1481 1481 1484 1483 1478 1478 1478 1480 1481 1482 1483 1484 1484 1485 1485 1485 1485 1485 1485 1484 1484 1483 1482 1481 1480 1479 1478 1477 1476 1476 1475 1474 1473 1472 1471 1469 1468 1466
1489 1490 1491 1493 1492 1482 1479 1479 1478 1477 1477 1477 1478 1479 1481 1482 1482 1483 1484 1484 1484 1484 1484 1484 1484 1483 1483 1482 1481 1480 1479 1478 1477 1476 1475 1474 1473 1472 1472 1470 1469 1468 1467 1465
1485 1484 1486 1487 1482 1479 1478 1477 1477 1477 1477 1477 1478 1479 1480 1481 1481 1482 1483 1483 1483 1483 1483 1483 1482 1481 1481 1481 1480 1479 1478 1477 1476 1474 1473 1473 1472 1471 1470 1469 1468 1467 1465 1464
1483 1483 1485 1485 1480 1478 1476 1476 1476 1477 1477 1477 1478 1479 1479 1480 1480 1481 1481 1481 1482 1482 1482 1481 1481 1480 1480 1479 1478 1477 1476 1475 1474 1473 1472 1471 1470 1470 1469 1468 1467 1465 1464 1463
1480 1481 1483 1482 1477 1478 1476 1475 1476 1476 1477 1477 1478 1478 1479 1479 1479 1479 1479 1480 1480 1480 1480 1479 1479 1479 1478 1477 1477 1476 1475 1474 1472 1471 1470 1469 1469 1468 1467 1466 1465 1464 1463 1461